Regional Weather Roundup
Issued by NWS Midland/Odessa, TX

Skip options and go directly to product.
Home | Oldest Version | Previous Version | Current Version | All | Graphics & Text | Save Text | Print | Product List | Glossary On

Skip product version selection by date and time.   
838
ASUS44 KMAF 201810
RWRMAF
MIDLAND AREA WEATHER ROUNDUP
NATIONAL WEATHER SERVICE MIDLAND TX
100 PM CDT MON OCT 20 2014

...IN SOUTHWEST TEXAS AND SOUTHEAST NEW MEXICO...

CITY           SKY/WX    TMP DP  RH WIND       PRES   REMARKS
ALPINE         CLOUDY    64  54  70 CALM      30.21R
ANDREWS        FAIR      71  59  65 E8        30.13F
ARTESIA        NOT AVBL
BIG SPRING     MOSUNNY   74  60  61 S7        30.14S
CARLSBAD       CLOUDY    67  58  72 CALM      30.11F
DRYDEN           N/A     68  65  90 SE8       30.07F
FORT STOCKTON  PTSUNNY   72  57  59 SE6       30.09F
GUAD PASS      CLOUDY    56  56 100 E24       30.17F FOG
HOBBS          SUNNY     70  59  68 E9        30.14F
MARFA          CLOUDY    57  54  88 NW3       30.18F
MIDLAND AIRPK  PTSUNNY   74  59  58 E6        30.12F
MIDLAND INTL   PTSUNNY   74  59  59 SE12G20   30.10F
ODESSA         PTSUNNY   72  58  61 SE8       30.12F
PECOS          PTSUNNY   70  58  66 NE3       30.09S
PRESIDIO       CLOUDY    73  57  57 N5        30.07F
SEMINOLE       MOSUNNY   72  57  59 SE5       30.14F
SNYDER         SUNNY     71  59  65 CALM      30.12F
WINK           CLOUDY    74  60  61 SE12G20   30.07F
$$
...OTHER STATIONS IN TEXAS...

CITY           SKY/WX    TMP DP  RH WIND       PRES   REMARKS
ABILENE        SUNNY     77  59  53 W6        30.10F
AMARILLO       SUNNY     74  53  48 NE8       30.14S
AUSTIN         MOSUNNY   78  64  61 NE7       30.07F
BROWNSVILLE    MOSUNNY   88  66  48 E9        29.95F
CORPUS CHRISTI LGT RAIN  75  72  90 E14       30.00F
DALLAS FTW     MOSUNNY   79  61  53 W6        30.07F
DEL RIO        CLOUDY    75  64  68 E8        30.04S
EL PASO        MOSUNNY   68  54  60 VRB5      30.10S
HOUSTON INT    MOSUNNY   80  61  52 N10       30.05F
LUBBOCK        PTSUNNY   74  56  53 VRB5      30.13F
SAN ANGELO     MOSUNNY   77  58  51 CALM      30.10F
SAN ANTONIO    PTSUNNY   80  60  50 NE8       30.05F
WACO           MOSUNNY   77  63  61 VRB3      30.08F
WICHITA FALLS  NOT AVBL
$$
...OTHER LOCATIONS IN NEW MEXICO...

CITY           SKY/WX    TMP DP  RH WIND       PRES   REMARKS
ALAMAGORDO     NOT AVBL
ALBUQUERQUE    PTSUNNY   62  43  49 S7        30.20S
CANNON AFB     MOSUNNY   69  55  60 VRB1      30.16F
CLOVIS         SUNNY     70  55  60 S7        30.18F
HOLLOMAN AFB   MOSUNNY   65  57  74 VRB2      30.12S
ROSWELL        CLOUDY    66  57  72 CALM      30.14F
RUIDOSO        CLOUDY    52  50  93 SE8       30.28F
SANTA FE       SUNNY     66  37  34 N7        30.23F
TRUTH OR CONSE SUNNY     66  50  56 NE9       30.15F
TUCUMCARI      SUNNY     72  46  39 VRB5      30.15F
$$

USA.gov is the U.S. government's official web portal to all federal, state and local government web resources and services.